Wind_Speed
46 44 41 42 47 14 40 23 38 30 34 27 24 17 17 9 3 4 9 4 5 8 5 2 5 7 8 10 13 17 22 28 32 35 37 36 36 29 27 23 32 34 23 20 21 23 24 19 16
43 46 45 46 46 42 34 30 33 34 33 31 26 18 16 15 3 9 9 7 2 3 3 14 16 21 22 25 27 32 33 35 38 40 38 37 32 21 22 27 36 37 26 18 22 20 18 18 17
41 44 46 48 46 40 36 35 37 33 31 32 28 21 19 14 12 18 15 12 13 12 9 11 17 25 23 24 30 34 37 38 41 40 33 27 26 26 31 32 40 32 24 15 19 18 16 18 19
40 43 45 46 47 44 42 39 39 36 32 29 28 24 19 14 17 23 22 14 8 15 24 25 26 30 29 33 34 35 38 38 43 36 27 33 22 30 25 36 39 27 20 19 23 11 9 20 19
42 43 42 44 44 46 43 43 40 40 37 34 30 27 21 17 16 19 20 20 24 27 28 29 33 38 41 42 42 41 38 40 43 36 35 30 30 32 37 44 39 30 19 20 25 10 12 19 23
36 39 41 43 44 46 45 44 44 41 38 35 32 29 26 21 20 18 18 18 22 25 25 27 33 34 38 40 42 44 44 44 39 39 38 37 37 38 38 41 34 29 20 18 12 8 8 14 19
28 34 34 37 39 44 45 45 45 44 41 36 34 30 29 27 23 22 20 22 23 25 28 34 38 35 39 44 44 43 48 45 45 44 39 44 46 43 43 38 28 24 19 15 9 7 9 15 18
27 29 30 33 37 42 43 46 46 47 46 43 37 35 33 31 30 30 29 28 28 31 32 33 37 40 42 43 44 44 45 43 36 45 51 54 50 46 37 35 31 19 19 16 12 12 13 14 15
23 27 30 29 31 38 41 45 46 46 48 46 44 42 41 39 38 38 38 37 39 36 39 43 41 43 42 41 42 43 41 38 37 47 49 46 43 33 34 29 25 15 19 17 14 16 13 13 23
16 20 26 31 32 32 35 39 44 44 44 46 48 48 46 44 43 43 43 43 44 41 41 41 43 42 38 39 37 39 43 49 44 42 31 37 41 41 33 29 24 15 20 15 16 19 19 18 26
19 19 20 24 27 31 34 37 39 41 44 42 44 47 46 46 48 48 49 45 43 40 39 43 43 43 42 33 39 45 49 40 35 25 25 37 43 44 33 20 18 15 16 16 13 32 16 24 28
20 22 22 22 25 27 30 32 34 35 35 34 36 38 40 40 38 41 40 38 36 38 38 31 30 31 37 39 33 31 27 27 30 38 29 31 36 35 30 10 14 14 14 16 14 8 10 27 20
21 25 27 28 29 30 29 30 30 31 31 32 33 32 33 34 33 33 34 35 34 33 31 29 26 25 24 24 17 10 20 33 21 19 21 27 28 21 2 2 6 17 16 14 14 16 16 17 13
14 18 20 24 27 30 32 33 32 31 31 30 30 30 30 31 29 29 28 27 25 23 22 22 23 22 21 18 15 21 24 15 16 15 17 18 14 12 1 5 15 20 19 22 20 21 18 12 13
11 11 10 10 15 21 24 26 26 26 27 27 27 27 28 27 23 18 16 14 14 14 14 13 12 9 9 8 6 6 8 9 11 15 22 19 20 17 12 2 3 8 10 15 16 16 17 17 19
23 16 11 5 8 12 15 16 17 18 18 18 17 16 14 11 8 7 6 6 6 5 2 2 9 12 18 25 28 25 23 16 12 10 17 16 17 16 13 10 8 10 14 16 17 16 14 19 22
10 9 4 3 11 12 15 17 18 15 12 10 11 12 11 10 11 11 11 9 14 16 19 19 17 19 19 21 20 17 15 18 15 8 16 15 13 12 9 9 13 12 21 24 23 23 21 16 15
29 28 15 11 19 19 19 19 24 22 21 20 20 19 20 19 22 23 22 21 19 19 18 17 15 15 12 16 13 12 9 9 12 8 12 16 14 12 10 10 10 15 22 28 31 26 22 20 15
30 28 23 21 23 30 18 24 26 32 32 32 32 33 34 34 30 29 26 23 21 18 19 16 13 15 15 16 15 15 18 21 23 20 17 21 23 22 21 21 20 19 21 22 25 28 28 27 26
34 24 23 24 23 26 26 29 31 33 34 32 31 29 29 27 26 24 18 15 11 10 10 9 13 15 15 14 15 14 16 17 18 21 22 24 25 24 24 24 25 26 26 28 32 32 33 34 34
29 30 27 24 22 22 25 28 29 28 28 29 29 29 24 18 15 14 12 6 6 8 6 11 13 14 14 13 14 15 16 18 21 23 24 25 26 27 30 31 32 33 34 36 39 41 39 39 37
28 27 26 28 28 28 29 28 27 26 24 24 24 25 24 19 15 11 9 11 3 1 3 9 10 9 11 12 15 18 20 22 24 26 29 30 33 35 37 38 43 31 37 38 39 41 44 48 48
23 28 26 26 25 18 23 24 23 24 22 19 19 17 18 17 14 8 7 8 8 6 5 8 9 10 12 16 18 20 22 24 26 27 28 30 32 36 41 46 37 32 44 47 42 45 48 48 50
23 22 22 21 19 21 17 20 20 19 20 17 13 11 8 11 13 12 9 9 9 8 9 10 12 15 18 21 22 24 26 26 27 30 34 36 38 39 41 37 34 41 51 54 51 52 53 54 52
27 24 23 22 20 18 17 19 18 17 16 18 17 13 11 11 9 7 5 6 6 8 11 13 16 18 20 23 27 29 29 31 33 35 37 39 39 38 35 37 47 51 57 58 58 59 61 60 55
27 27 25 25 23 21 19 19 17 16 15 13 13 10 5 5 6 5 4 6 8 10 13 16 20 23 25 26 28 30 33 35 37 39 41 41 41 44 46 48 52 54 58 63 69 67 60 55 55
31 27 29 27 24 21 20 17 15 14 12 9 6 5 3 1 3 6 9 11 13 15 17 19 22 25 27 31 33 34 37 39 42 45 46 45 49 52 55 58 60 64 69 75 70 62 57 54 51
33 34 26 23 24 21 22 19 17 15 13 11 8 7 5 7 8 10 13 17 20 22 24 25 28 30 32 35 38 41 43 46 49 53 53 55 58 60 63 65 70 74 78 76 64 55 53 50 53
37 31 27 27 26 27 23 22 20 18 16 13 11 10 12 13 14 16 19 21 24 27 29 30 32 34 37 40 44 49 52 55 58 60 61 64 66 70 72 74 78 81 81 67 54 50 49 53 60
42 37 35 32 29 26 26 23 19 17 16 15 15 15 17 20 21 20 23 24 27 30 33 35 37 40 42 45 49 55 58 60 63 65 68 71 73 75 78 82 84 87 74 58 47 50 55 67 69
Wind_Direction
186 186 188 182 189 165 191 172 204 206 213 217 233 231 221 231 284 127 92 133 58 113 141 150 316 346 329 336 334 336 339 332 329 330 329 329 327 336 344 331 340 347 343 332 346 343 3 9 41
188 190 192 191 204 210 198 197 198 209 214 219 233 242 232 226 198 170 185 136 109 80 237 246 260 266 275 274 286 302 315 316 318 323 326 327 325 328 326 327 340 346 341 326 341 344 356 4 12
187 191 194 198 203 211 206 205 203 207 216 223 233 242 237 232 196 218 243 275 288 286 249 245 256 272 276 285 287 294 304 308 316 318 325 336 332 327 324 332 334 339 337 341 335 332 2 343 6
190 192 195 200 204 206 207 206 208 209 216 226 233 237 238 243 242 234 248 265 272 252 260 273 269 277 283 286 290 298 303 308 309 315 326 328 326 323 316 324 333 330 330 334 333 335 333 343 348
188 191 199 200 205 206 208 207 211 216 217 228 233 235 237 238 249 253 251 244 241 258 270 280 273 272 277 284 287 295 301 301 305 311 314 313 307 307 303 315 333 331 330 321 321 328 325 337 340
189 196 197 203 206 208 211 210 211 216 222 224 230 235 238 238 251 264 268 264 267 260 257 265 275 280 284 281 289 291 297 298 302 310 305 310 317 313 312 310 323 330 324 335 328 338 319 352 342
196 196 204 206 210 211 214 216 215 216 220 225 229 230 234 239 249 261 268 272 272 265 264 261 271 275 284 284 289 292 297 303 306 310 311 314 315 311 313 319 329 332 335 311 325 298 302 335 338
179 206 203 210 211 213 217 219 220 219 221 223 223 229 236 242 250 259 264 269 274 273 272 272 276 278 282 281 286 292 298 304 317 311 313 314 311 311 317 320 317 319 319 315 347 326 284 301 323
201 203 205 214 216 218 221 223 224 225 224 227 230 232 238 247 254 259 265 267 271 268 266 273 277 278 280 281 287 290 295 304 299 306 310 300 312 308 315 326 328 291 311 319 329 323 325 321 330
217 208 208 214 216 219 224 225 230 232 235 235 238 240 246 253 257 260 264 269 273 268 267 272 275 276 273 280 293 293 300 302 304 306 319 315 304 302 309 318 319 303 317 311 333 327 315 340 347
214 209 217 217 220 222 223 225 227 231 236 240 243 247 248 252 254 260 265 264 265 264 272 273 270 266 279 283 289 293 295 299 301 300 297 295 294 296 293 324 314 324 310 309 336 341 307 341 342
230 230 230 225 228 229 230 229 230 230 233 236 238 243 246 251 253 256 260 262 266 268 266 276 281 279 275 280 289 297 296 307 305 304 308 297 293 295 303 249 324 326 301 311 306 322 272 306 331
217 223 226 231 235 234 234 234 235 235 238 242 242 245 248 252 256 259 263 268 266 266 267 273 280 284 282 280 292 223 280 314 316 318 322 320 316 317 335 341 273 326 297 308 317 313 315 305 305
203 215 214 218 223 227 232 237 241 244 249 251 255 254 254 256 258 260 262 262 263 266 270 277 278 276 280 287 278 268 291 314 339 341 343 344 11 20 307 271 264 301 304 313 318 316 315 305 308
167 175 187 206 218 215 217 221 226 231 234 239 242 245 246 244 242 246 255 266 273 274 266 263 268 281 296 304 325 330 324 334 351 14 11 16 30 38 47 341 355 327 345 339 330 326 326 307 305
103 100 73 153 153 175 181 195 206 214 219 223 223 224 222 221 225 237 241 235 221 222 217 140 105 90 68 69 60 64 64 63 46 48 37 35 35 52 69 58 358 298 336 326 335 329 318 312 301
157 255 331 141 141 144 137 129 125 127 132 151 170 170 168 156 137 128 125 108 104 88 82 95 101 92 81 61 58 51 48 38 26 26 25 34 25 23 37 5 349 324 322 325 332 333 324 316 300
180 200 214 153 124 123 120 128 120 121 129 135 130 122 114 121 117 115 105 103 104 95 106 112 102 73 65 50 46 28 35 29 26 18 22 11 15 7 1 348 317 299 301 316 322 326 324 318 295
138 154 154 128 118 110 108 118 125 119 113 112 111 115 115 117 116 115 110 107 106 102 106 92 70 48 33 15 21 21 17 17 17 14 15 9 8 359 354 344 338 331 324 322 319 320 317 308 301
138 151 138 137 135 125 123 115 113 116 117 119 119 127 126 125 122 117 116 118 115 100 96 67 52 44 32 38 32 20 11 14 9 7 5 360 353 351 347 341 335 332 325 317 317 315 316 312 302
144 135 137 132 129 124 122 122 119 116 115 116 116 119 120 121 137 118 103 101 130 105 74 42 34 21 25 27 29 30 27 24 19 14 11 6 358 351 347 343 340 337 334 328 323 320 317 315 311
136 137 133 128 126 124 124 124 120 115 110 114 116 118 118 113 107 102 88 61 88 240 6 30 28 34 40 32 23 13 9 6 3 359 357 353 349 348 347 339 331 332 335 331 326 320 317 314 311
149 146 144 141 136 129 122 121 122 123 121 114 115 110 109 116 116 107 102 99 94 82 60 50 40 25 17 14 9 4 0 358 357 355 353 346 341 341 341 336 334 327 334 328 326 318 313 311 307
162 159 149 146 138 137 133 125 131 132 132 129 126 120 95 105 114 106 98 91 82 66 50 33 17 7 3 1 356 354 353 351 350 351 351 346 340 339 351 330 329 320 324 325 324 319 312 310 305
167 168 158 153 152 145 137 131 127 130 130 128 125 126 129 123 120 107 79 38 31 24 11 2 357 354 352 350 349 348 346 347 347 348 346 342 339 337 335 323 320 321 325 325 321 318 312 309 305
177 172 167 164 163 160 158 150 150 150 148 146 142 146 142 81 49 29 359 333 338 351 353 352 352 349 346 343 342 342 342 343 343 343 341 338 336 334 330 327 326 324 321 323 322 320 317 312 309
188 185 180 174 171 172 172 165 168 168 166 167 166 165 170 219 291 312 317 319 325 336 344 346 347 346 342 339 337 338 340 341 341 338 337 336 336 336 333 333 330 328 328 329 328 324 321 315 313
187 198 190 189 181 189 188 188 186 193 195 199 209 226 240 273 286 298 308 314 320 326 335 342 344 343 340 337 334 334 339 341 339 338 338 337 337 336 335 333 333 333 333 332 331 327 323 320 316
197 199 200 204 205 199 208 209 206 213 218 221 232 251 268 273 283 296 303 308 315 321 329 337 341 339 339 336 334 334 340 340 338 337 338 338 337 336 335 335 335 334 335 335 329 326 323 322 318
201 200 204 207 215 220 223 228 233 228 235 247 256 264 272 281 286 293 298 303 310 318 327 335 337 336 336 334 333 334 339 337 334 335 338 336 335 335 336 335 335 337 337 334 329 325 324 325 327
Height
10993 10998 11002 11006 11005 11001 11010 11021 11022 11019 11023 11027 11027 11030 11033 11035 11037 11039 11037 11038 11039 11039 11039 11038 11033 11034 11034 11032 11031 11029 11027 11025 11024 11023 11022 11020 11018 11014 11011 11008 11004 11003 11000 10997 10995 10994 10991 10987 10985
10992 10997 11001 11003 11000 11006 11011 11015 11019 11021 11023 11026 11026 11028 11031 11034 11036 11037 11037 11038 11039 11040 11039 11036 11034 11032 11031 11029 11028 11026 11025 11025 11024 11022 11020 11018 11016 11014 11010 11008 11004 11001 10999 10996 10995 10994 10991 10989 10985
10989 10995 10998 11001 11002 11005 11009 11014 11019 11021 11022 11024 11025 11028 11030 11033 11036 11034 11035 11037 11038 11039 11037 11036 11034 11031 11030 11028 11027 11025 11024 11023 11023 11022 11019 11017 11015 11012 11009 11006 11003 11000 10998 10996 10995 10993 10991 10989 10986
10987 10993 10996 11000 11002 11005 11010 11013 11017 11020 11023 11023 11025 11028 11029 11030 11032 11034 11035 11037 11036 11036 11035 11035 11032 11030 11029 11027 11026 11025 11023 11023 11022 11020 11018 11015 11013 11010 11006 11004 11002 10999 10997 10996 10994 10991 10989 10988 10986
10982 10987 10993 10995 11000 11004 11008 11012 11015 11018 11021 11023 11024 11026 11028 11029 11030 11032 11034 11036 11035 11034 11032 11032 11031 11028 11027 11025 11025 11024 11020 11022 11021 11018 11016 11015 11012 11009 11005 11003 11001 10999 10995 10994 10992 10989 10987 10986 10985
10985 10990 10990 10994 10997 11001 11005 11008 11012 11017 11019 11021 11022 11025 11026 11027 11029 11030 11032 11033 11032 11032 11032 11029 11028 11027 11026 11025 11023 11021 11020 11020 11019 11015 11014 11011 11009 11006 11003 11001 10999 10997 10993 10990 10988 10987 10986 10984 10983
10986 10986 10993 10995 10997 11000 11003 11007 11010 11014 11017 11019 11021 11022 11024 11026 11028 11030 11030 11031 11031 11031 11030 11029 11028 11027 11026 11024 11021 11019 11018 11016 11015 11014 11011 11010 11006 11003 11001 11000 10997 10993 10991 10988 10986 10985 10984 10983 10982
10986 10986 10989 10994 10996 10998 11001 11003 11007 11010 11014 11016 11019 11020 11022 11024 11025 11027 11028 11028 11028 11028 11027 11027 11026 11026 11024 11021 11018 11016 11016 11013 11012 11011 11011 11009 11006 11001 10999 10998 10995 10993 10990 10987 10985 10985 10983 10982 10981
10984 10985 10988 10992 10994 10996 10998 11001 11003 11006 11009 11011 11013 11016 11018 11020 11022 11023 11024 11024 11024 11025 11025 11024 11022 11021 11019 11017 11015 11013 11012 11012 11012 11008 11000 10993 11002 11000 10998 10994 10991 10990 10989 10988 10986 10983 10982 10981 10981
10984 10986 10986 10988 10991 10993 10996 10998 11000 11004 11006 11009 11011 11013 11015 11016 11018 11019 11020 11020 11021 11020 11021 11019 11017 11014 11013 11013 11012 11010 11007 11007 11008 11003 10999 10987 11000 11002 10994 10992 10987 10985 10989 10989 10987 10984 10981 10981 10979
10979 10983 10986 10987 10988 10990 10991 10993 10996 10999 11002 11005 11007 11008 11011 11012 11013 11015 11016 11016 11016 11016 11016 11013 11012 11008 11008 11013 11014 11007 11003 11005 11005 11004 11003 10997 11000 10999 10996 10986 10983 10984 10988 10989 10989 10985 10975 10972 10976
10977 10980 10982 10984 10986 10987 10988 10989 10991 10993 10996 10999 11002 11003 11005 11006 11008 11010 11011 11011 11012 11013 11012 11010 11007 11006 11008 11011 11010 11002 10998 11004 10998 10999 10998 10997 10995 10992 10990 10992 10989 10986 10990 10990 10987 10990 10978 10976 10978
10976 10976 10977 10978 10979 10981 10983 10985 10987 10990 10993 10995 10997 10999 11000 11002 11004 11005 11007 11008 11009 11008 11008 11007 11003 11003 11006 11008 11008 10997 10995 10996 10995 10993 10990 10990 10989 10988 10988 10990 10993 10995 10994 10991 10988 10986 10984 10980 10977
10974 10974 10974 10975 10975 10977 10979 10981 10984 10986 10987 10989 10991 10994 10996 10998 11000 11001 11002 11003 11004 11004 11004 11003 11001 11000 11003 11004 11004 11002 10998 10994 10993 10990 10991 10990 10984 10984 10991 10995 10994 10994 10995 10991 10985 10982 10980 10978 10975
10975 10975 10975 10976 10975 10974 10976 10978 10980 10982 10985 10986 10988 10991 10993 10996 10997 10999 11000 11000 11000 11000 11000 11000 11000 11000 11002 11004 11003 11001 10999 10997 10996 10998 10995 10992 10987 10988 10990 10984 10985 10984 10985 10990 10985 10980 10978 10977 10976
10975 10975 10976 10977 10975 10973 10973 10975 10977 10980 10982 10984 10987 10988 10990 10993 10995 10997 10999 11000 11000 11000 11001 11003 11003 11004 11003 11002 11000 10999 10998 10999 10999 10998 10995 10992 10990 10992 10991 10982 10973 10979 10984 10989 10985 10979 10975 10972 10972
10970 10976 10977 10980 10976 10976 10976 10977 10978 10979 10980 10983 10985 10987 10989 10992 10996 10998 10999 11000 11002 11003 11004 11005 11007 11007 11005 11004 11003 11003 11003 11002 11002 11000 10997 10994 10992 10994 10996 10988 10985 10986 10987 10988 10982 10975 10972 10968 10967
10968 10974 10982 10984 10979 10979 10979 10980 10978 10981 10983 10985 10988 10989 10992 10994 10997 10998 11001 11003 11004 11006 11008 11009 11010 11009 11009 11008 11007 11006 11006 11005 11003 11000 10997 10995 10994 10993 10995 10995 10993 10991 10989 10982 10976 10972 10968 10966 10963
10973 10978 10983 10981 10983 10979 10988 10985 10983 10984 10987 10988 10991 10994 10996 10998 11000 11002 11006 11007 11009 11011 11011 11011 11011 11010 11009 11008 11007 11006 11004 11002 11000 10999 10997 10996 10993 10992 10990 10989 10986 10984 10979 10975 10972 10968 10964 10961 10958
10972 10981 10979 10982 10984 10985 10988 10988 10988 10989 10990 10993 10995 10998 11001 11003 11006 11008 11008 11009 11011 11012 11011 11011 11010 11010 11009 11008 11007 11006 11004 11002 11000 10998 10996 10995 10993 10990 10986 10982 10978 10975 10972 10969 10966 10962 10958 10954 10950
10978 10977 10983 10986 10987 10988 10990 10991 10993 10994 10995 10997 11000 11003 11005 11007 11009 11010 11011 11012 11013 11013 11013 11012 11012 11011 11010 11009 11008 11006 11004 11002 11000 10999 10997 10995 10990 10985 10980 10976 10972 10966 10962 10958 10955 10953 10950 10946 10943
10978 10982 10985 10987 10988 10991 10991 10992 10995 10998 11000 11001 11004 11006 11008 11010 11012 11014 11015 11014 11014 11015 11015 11014 11013 11013 11011 11010 11008 11006 11004 11002 11000 10998 10996 10992 10986 10981 10978 10971 10966 10961 10956 10948 10944 10943 10941 10935 10929
10982 10982 10985 10987 10989 10994 10993 10994 10998 11000 11003 11005 11007 11010 11010 11012 11015 11017 11017 11017 11017 11017 11016 11016 11015 11014 11012 11010 11008 11006 11003 11001 10999 10997 10995 10990 10984 10980 10976 10969 10963 10954 10948 10944 10936 10932 10929 10925 10919
10982 10985 10987 10989 10991 10993 10997 10997 10999 11002 11005 11007 11009 11011 11014 11015 11016 11019 11020 11019 11019 11018 11018 11017 11015 11014 11012 11009 11007 11004 11001 10999 10997 10995 10991 10985 10979 10977 10985 10949 10968 10954 10943 10934 10926 10922 10918 10911 10903
10981 10985 10987 10990 10993 10995 10997 10999 11002 11004 11006 11008 11010 11014 11016 11017 11019 11020 11020 11020 11020 11019 11018 11016 11015 11013 11010 11008 11004 11001 10998 10996 10993 10991 10988 10982 10974 10970 10972 10974 10960 10945 10931 10922 10916 10910 10903 10892 10883
10979 10983 10987 10990 10993 10996 10998 11000 11003 11006 11008 11010 11011 11014 11016 11016 11017 11019 11020 11020 11019 11018 11017 11015 11013 11011 11008 11005 11002 10999 10995 10992 10988 10985 10982 10976 10970 10963 10958 10952 10943 10931 10923 10914 10904 10892 10881 10872 10863
10977 10981 10984 10987 10990 10995 10998 11000 11002 11005 11007 11009 11011 11012 11014 11016 11017 11018 11018 11018 11018 11017 11016 11014 11012 11009 11005 11002 10999 10995 10992 10987 10983 10978 10974 10969 10964 10956 10947 10938 10929 10921 10910 10898 10886 10873 10863 10854 10846
10975 10975 10982 10987 10990 10993 10995 10997 10999 11002 11004 11007 11009 11010 11012 11014 11015 11016 11016 11015 11014 11012 11011 11010 11008 11005 11002 10998 10994 10990 10986 10980 10975 10969 10965 10959 10951 10944 10937 10927 10916 10905 10893 10882 10869 10858 10850 10841 10833
10970 10976 10980 10982 10985 10988 10993 10994 10995 10998 11000 11003 11006 11007 11008 11010 11011 11012 11012 11012 11010 11008 11007 11006 11004 11001 10997 10992 10987 10981 10976 10970 10963 10958 10953 10943 10936 10927 10920 10911 10900 10888 10876 10865 10855 10846 10838 10831 10822
10963 10969 10973 10978 10982 10986 10987 10988 10993 10994 10996 10998 11000 11002 11003 11004 11006 11007 11007 11007 11005 11003 11002 11000 10998 10994 10990 10984 10978 10972 10966 10960 10954 10948 10940 10931 10924 10914 10906 10895 10885 10872 10861 10852 10844 10835 10828 10819 10809